Location: Hebron
(33.0265°N, 96.8636°W)
Time: 17:21:37
(UTC+00:00)

Okean 1 - Pass Details

Date: 08 July 2022
Orbit: 532 x 552 km, 82.5° (Epoch: 18 August)

Event Time Altitude Azimuth Distance (km) Brightness Sun altitude
Rises 08:24:59 0° 10° (N) 2,682 7.9 -28.4°
Reaches altitude 10° 08:27:33 10° 27° (NNE) 1,786 6.9 -28.1°
Maximum altitude 08:30:34 21° 77° (ENE) 1,231 5.5 -27.8°
Enters shadow 08:31:10 20° 91° (E) 1,257 5.4 -27.7°
